Location: Epalinges
(46.5518°N, 6.6683°E)
Time: 18:04:23
(UTC+00:00)

CENTAUR R/B - Pass Details

Date: 20 June 2021
Orbit: 740 x 1447 km, 63.4° (Epoch: 17 July)

Event Time Altitude Azimuth Distance (km) Brightness Sun altitude
Rises 02:59:38 0° 320° (NW) 4,135 5.8 -6.1°
Reaches altitude 10° 03:02:17 10° 321° (NW) 3,253 5.3 -5.8°
Maximum altitude 03:10:25 86° 51° (NE) 1,391 3.4 -4.8°
Drops below altitude 10° 03:19:21 10° 141° (SE) 3,553 5.4 -3.6°
Sets 03:22:20 0° 142° (SE) 4,532 6.0 -3.2°
